Montreal, Quebec

4:14 AM EDT on July 26, 2017 (GMT -0400)
Montreal-Pierre Elliott Trudeau Int'l Airport

Weather History for CYUL - November, 2011

Change the Weather History Date:

Saturday, November 5, 2011

  Actual Average Record
Temperature  
Mean Temperature 36 °F -  
Max Temperature 44 °F 39 °F 64 °F (2008)
Min Temperature 27 °F 25 °F 26 °F (2012)
Degree Days  
Heating Degree Days 30    
Moisture  
Dew Point 25 °F    
Average Humidity 64    
Maximum Humidity 80    
Minimum Humidity 45    
Precipitation  
Precipitation 0.00 in 0.12 in - ()
Sea Level Pressure  
Sea Level Pressure 30.45 in    
Wind  
Wind Speed 5 mph ()    
Max Wind Speed 9 mph    
Max Gust Speed -    
Visibility 15.0 miles    
Events      
Averages and records for this station are not official NWS values.
T = Trace of Precipitation, MM = Missing Value Source: Averaged Metar Reports

Daily Weather History Graph

Daily Weather History Graph

Search for Another Location

Airport or City:

Trip Planner

Search our weather history database for the weather conditions in past years. The results will help you decide how hot, cold, wet, or windy it might be!

Date:

Astronomy

Nov. 05, 2011 Rise Set
Actual Time 7:39 AM EDT 5:36 PM EDT
Civil Twilight 7:08 AM EDT 6:08 PM EDT
Nautical Twilight 6:33 AM EDT 6:43 PM EDT
Astronomical Twilight 5:58 AM EDT 7:17 PM EDT
Moon 3:05 PM EDT (11/5) 2:33 AM EDT (11/5)
Length of Visible Light 10h 59m
Length of Day
9h 57m
Waxing Gibbous, 78% of the Moon is Illuminated
Nov 5
Waxing Gibbous
Nov 10
Full
Nov 18
Last Quarter
Nov 25
New
Dec 2
First Quarter

Hourly Weather History & Observations

Time (EDT) Temp. Windchill Dew Point Humidity Pressure Visibility Wind Dir Wind Speed Gust Speed Precip Events Conditions
12:00 AM 30.2 °F 24.3 °F 21.2 °F 69% 30.38 in 15.0 mi WNW 5.8 mph - N/A   Clear
1:00 AM 32.0 °F 27.5 °F 21.2 °F 64% 30.38 in 15.0 mi NNW 4.6 mph - N/A   Clear
2:00 AM 28 °F - 21 °F 64% 30.40 in 15 mi NW 8.1 mph - -  
2:00 AM 28.4 °F 20.4 °F 21.2 °F 74% 30.40 in 15.0 mi NW 8.1 mph - N/A   Clear
3:00 AM 28.4 °F 21.2 °F 21.2 °F 74% 30.41 in 15.0 mi NW 6.9 mph - N/A   Clear
4:00 AM 28.4 °F 23.3 °F 21.2 °F 74% 30.42 in 15.0 mi WNW 4.6 mph - N/A   Clear
6:00 AM 30.2 °F 24.3 °F 21.2 °F 69% 30.45 in 15.0 mi NNW 5.8 mph - N/A   Clear
7:00 AM 28.4 °F 24.6 °F 21.2 °F 74% 30.47 in 15.0 mi NNW 3.5 mph - N/A   Partly Cloudy
8:00 AM 29 °F - 22 °F 64% 30.48 in 28 mi Calm Calm - -   Clear
8:00 AM 28.4 °F - 21.2 °F 74% 30.48 in 30.0 mi Calm Calm - N/A   Partly Cloudy
9:00 AM 30.2 °F - 24.8 °F 80% 30.50 in 30.0 mi West 2.3 mph - N/A   Clear
10:00 AM 35.6 °F - 24.8 °F 65% 30.50 in 30.0 mi Calm Calm - N/A   Partly Cloudy
11:00 AM 39.2 °F 37.0 °F 24.8 °F 56% 30.51 in 30.0 mi South 3.5 mph - N/A   Partly Cloudy
12:00 PM 41.0 °F 36.4 °F 28.4 °F 61% 30.51 in 30.0 mi SSW 6.9 mph - N/A   Partly Cloudy
1:00 PM 42.8 °F 38.0 °F 28.4 °F 57% 30.48 in 30.0 mi SSW 8.1 mph - N/A   Partly Cloudy
2:00 PM 43 °F - 29 °F 45% 30.48 in 28 mi SSW 9.2 mph - -   Clear
2:00 PM 42.8 °F 38.0 °F 28.4 °F 57% 30.48 in 30.0 mi SSW 8.1 mph - N/A   Partly Cloudy
4:00 PM 44.6 °F 40.7 °F 28.4 °F 53% 30.46 in 30.0 mi SW 6.9 mph - N/A   Partly Cloudy
5:00 PM 42.8 °F 38.6 °F 28.4 °F 57% 30.45 in 30.0 mi SSW 6.9 mph - N/A   Partly Cloudy
6:00 PM 41.0 °F 38.0 °F 26.6 °F 57% 30.44 in 30.0 mi SSW 4.6 mph - N/A   Clear
7:00 PM 37.4 °F 32.8 °F 24.8 °F 60% 30.43 in 15.0 mi South 5.8 mph - N/A   Clear
8:00 PM 37 °F - 25 °F 49% 30.43 in 15 mi South 6.9 mph - -  
8:00 PM 37.4 °F 32.1 °F 24.8 °F 60% 30.43 in 15.0 mi South 6.9 mph - N/A   Clear
9:00 PM 35.6 °F 29.9 °F 26.6 °F 70% 30.43 in 15.0 mi SSE 6.9 mph - N/A   Clear
10:00 PM 35.6 °F 29.9 °F 26.6 °F 70% 30.43 in 15.0 mi South 6.9 mph - N/A   Clear
11:00 PM 37.4 °F 32.1 °F 28.4 °F 70% 30.41 in 15.0 mi SSW 6.9 mph - N/A   Clear